EA1AY-13 Weather Reports


Display with metric or nautical units.
time (UTC)temp
F
wind
direction
speed
MPH
gust
MPH
rain 1hr
in
rain 24hr
in
rain mn
in
humidity
%
barometer
mb
20260905042516 0 0.0 0.0 0.00 0.00 0.00
20260905042051 0 0.0 0.0 0.00 0.00 0.00
20260905041619 0 0.0 0.0 0.00 0.00 0.00
20260905041016 0 0.0 0.0 0.00 0.00 0.00
20260905040037 0 0.0 0.0 0.00 0.00 0.00
20260905035542 0 0.0 0.0 0.00 0.00 0.00
20260905035039 0 0.0 0.0 0.00 0.00 0.00
20260905034536 0 0.0 0.0 0.00 0.00 0.00
20260905033517 0 0.0 0.0 0.00 0.00 0.00
20260905033022 0 0.0 0.0 0.00 0.00 0.00
20260905032600 0 0.0 0.0 0.00 0.00 0.00
20260905032017 0 0.0 0.0 0.00 0.00 0.00
20260905031016 0 0.0 0.0 0.00 0.00 0.00
20260905030522 0 0.0 0.0 0.00 0.00 0.00
20260905030039 0 0.0 0.0 0.00 0.00 0.00
20260905025036 0 0.0 0.0 0.00 0.00 0.00
20260905024044 68 0.0 0.0 0.00 0.00 0.00 78 1022.3
20260905023632 68 0.0 0.0 0.00 0.00 0.00 78 1022.4
20260905023017 68 0.0 1.0 0.00 0.00 0.00 78 1022.4
20260905022016 69 0.0 2.0 0.00 0.00 0.00 77 1022.4
20260905021016 69 293 1.0 2.0 0.00 0.00 0.00 77 1022.2
20260905020016 69 0.0 2.0 0.00 0.00 0.00 77 1022.1
20260905015036 69 0.0 3.0 0.00 0.00 0.00 78 1022.3
20260905014016 69 293 1.0 3.0 0.00 0.00 0.00 78 1022.6
20260905013017 69 0.0 2.0 0.00 0.00 0.00 79 1022.6
20260905012016 70 293 1.0 4.0 0.00 0.00 0.00 79 1022.6
20260905011016 70 293 1.0 3.0 0.00 0.00 0.00 79 1022.8
20260905010016 70 0.0 2.0 0.00 0.00 0.00 80 1023.0
20260905005016 70 0.0 2.0 0.00 0.00 0.00 80 1023.2
20260905004016 70 293 1.0 3.0 0.00 0.00 0.00 79 1023.4
20260905003017 69 0.0 3.0 0.00 0.00 0.00 79 1023.8
20260905002017 69 0.0 2.0 0.00 0.00 0.00 80 1023.7
20260905001016 69 293 2.0 6.0 0.00 0.00 0.00 80 1023.8
20260905000016 69 293 1.0 4.0 0.00 0.00 0.00 80 1023.8
20260904235016 69 293 1.0 5.0 0.00 0.00 0.00 80 1023.8
20260904234056 70 293 1.0 4.0 0.00 0.00 0.00 80 1023.8
20260904233017 69 0.0 4.0 0.00 0.00 0.00 80 1023.8
20260904232016 70 293 1.0 6.0 0.00 0.00 0.00 81 1023.7
20260904231036 70 0.0 3.0 0.00 0.00 0.00 81 1023.6
20260904230036 70 293 1.0 6.0 0.00 0.00 0.00 81 1023.5
20260904225016 70 0.0 2.0 0.00 0.00 0.00 81 1023.6
20260904224016 69 293 1.0 3.0 0.00 0.00 0.00 81 1023.5
20260904223016 69 0.0 2.0 0.00 0.00 0.00 81 1023.5
20260904222016 69 0.0 1.0 0.00 0.00 0.00 81 1023.5
20260904221016 70 0.0 1.0 0.00 0.00 0.00 81 1023.5
20260904220016 70 0.0 2.0 0.00 0.00 0.00 81 1023.6
20260904215037 70 0.0 3.0 0.00 0.00 0.00 81 1023.6
20260904214017 70 0.0 2.0 0.00 0.00 0.00 82 1023.7
20260904213017 70 0.0 2.0 0.00 0.00 0.00 82 1023.7
20260904212017 69 0.0 3.0 0.00 0.00 0.00 82 1023.7
20260904211018 70 0.0 0.0 0.00 0.00 0.00 82 1023.8
20260904210017 70 0.0 0.0 0.00 0.00 0.00 82 1023.8
20260904205058 70 0.0 1.0 0.00 0.00 0.00 82 1023.9
20260904204017 70 0.0 1.0 0.00 0.00 0.00 82 1023.8
20260904203018 70 0.0 0.0 0.00 0.00 0.00 82 1023.7
20260904202017 70 0.0 0.0 0.00 0.00 0.00 82 1023.9
20260904201017 70 293 1.0 3.0 0.00 0.00 0.00 82 1023.6
20260904200037 70 293 1.0 2.0 0.00 0.00 0.00 83 1023.6
20260904195017 70 0.0 2.0 0.00 0.00 0.00 82 1023.6
20260904194017 71 0.0 0.0 0.00 0.00 0.00 82 1023.6
20260904193017 71 0.0 2.0 0.00 0.00 0.00 82
20260904192017 71 293 1.0 5.0 0.00 0.00 0.00 82
20260904191038 71 293 2.0 6.0 0.00 0.00 0.00 82
20260904190017 71 293 1.0 6.0 0.00 0.00 0.00 82
20260904185037 71 293 1.0 4.0 0.00 0.00 0.00 82
20260904184017 71 293 2.0 6.0 0.00 0.00 0.00 82
20260904183018 71 293 2.0 6.0 0.00 0.00 0.00 82
20260904182018 71 293 2.0 5.0 0.00 0.00 0.00 82
20260904181038 71 293 2.0 5.0 0.00 0.00 0.00 82
20260904180017 71 293 1.0 4.0 0.00 0.00 0.00 82
20260904175018 71 0.0 3.0 0.00 0.00 0.00 82
20260904174017 71 293 1.0 6.0 0.00 0.00 0.00 82
20260904173017 71 293 1.0 5.0 0.00 0.00 0.00 82
20260904172017 72 293 1.0 2.0 0.00 0.00 0.00 82
20260904171017 72 293 1.0 4.0 0.00 0.00 0.00 82
20260904170017 72 293 1.0 5.0 0.00 0.00 0.00 81
20260904165017 73 293 1.0 3.0 0.00 0.00 0.00 80
20260904164017 73 293 2.0 6.0 0.00 0.00 0.00 79
20260904163017 74 0.0 5.0 0.00 0.00 0.00 78
20260904162017 75 293 1.0 4.0 0.00 0.00 0.00 77
20260904161017 75 293 1.0 4.0 0.00 0.00 0.00 77
20260904160017 75 293 1.0 4.0 0.00 0.00 0.00 76
20260904155038 74 293 1.0 4.0 0.00 0.00 0.00 77
20260904154017 75 0.0 0.0 0.00 0.00 0.00 75
20260904153017 75 0.0 1.0 0.00 0.00 0.00 75 1023.2
20260904152037 75 293 1.0 3.0 0.00 0.00 0.00 74 1023.3
20260904151017 76 293 1.0 2.0 0.00 0.00 0.00 73 1023.3
20260904150017 76 293 1.0 3.0 0.00 0.00 0.00 73 1023.2
20260904145017 76 293 1.0 3.0 0.00 0.00 0.00 73 1023.4
20260904144017 77 293 1.0 4.0 0.00 0.00 0.00 73 1023.4
20260904143016 77 293 2.0 6.0 0.00 0.00 0.00 72 1023.3
20260904142017 78 293 2.0 7.0 0.00 0.00 0.00 71 1023.4
20260904141037 78 293 2.0 4.0 0.00 0.00 0.00 70 1023.3
20260904140017 78 293 2.0 4.0 0.00 0.00 0.00 70 1023.3
20260904135017 78 293 2.0 3.0 0.00 0.00 0.00 71 1023.5
20260904134017 78 293 2.0 5.0 0.00 0.00 0.00 70 1023.4
20260904133017 78 293 2.0 5.0 0.00 0.00 0.00 71 1023.2
20260904132016 78 293 2.0 6.0 0.00 0.00 0.00 71 1023.2
20260904131017 78 293 2.0 4.0 0.00 0.00 0.00 72 1023.0
20260904130016 77 293 2.0 4.0 0.00 0.00 0.00 71 1023.0
20260904125017 77 293 1.0 4.0 0.00 0.00 0.00 72 1023.0
20260904124016 78 293 1.0 3.0 0.00 0.00 0.00 73 1022.9
20260904123016 78 293 1.0 3.0 0.00 0.00 0.00 72 1022.8
20260904122016 78 293 2.0 4.0 0.00 0.00 0.00 72 1022.8
20260904121016 78 293 1.0 3.0 0.00 0.00 0.00 73 1022.7
20260904120017 78 293 2.0 5.0 0.00 0.00 0.00 73 1022.7
20260904115017 77 293 1.0 3.0 0.00 0.00 0.00 74 1022.6
20260904114016 77 293 1.0 5.0 0.00 0.00 0.00 73 1022.7
20260904113017 77 293 1.0 4.0 0.00 0.00 0.00 75 1022.8
20260904112058 76 293 2.0 5.0 0.00 0.00 0.00 75 1022.7
20260904111016 76 293 1.0 4.0 0.00 0.00 0.00 77 1022.7
20260904110037 75 293 2.0 6.0 0.00 0.00 0.00 77 1022.6
20260904105016 76 293 1.0 3.0 0.00 0.00 0.00 76 1022.8
20260904104017 75 293 1.0 5.0 0.00 0.00 0.00 77 1022.7
20260904103057 75 0.0 2.0 0.00 0.00 0.00 79 1022.7
20260904102036 73 293 1.0 3.0 0.00 0.00 0.00 81 1022.8
20260904101017 73 293 1.0 3.0 0.00 0.00 0.00 82 1022.8
20260904100016 72 0.0 2.0 0.00 0.00 0.00 82 1022.8
20260904095017 72 0.0 3.0 0.00 0.00 0.00 82 1022.9
20260904094036 71 0.0 1.0 0.00 0.00 0.00 81 1023.0
20260904093017 71 0.0 1.0 0.00 0.00 0.00 80 1023.0
20260904092017 71 293 1.0 2.0 0.00 0.00 0.00 81 1022.9
20260904091017 71 0.0 0.0 0.00 0.00 0.00 81 1022.8
20260904090017 71 0.0 0.0 0.00 0.00 0.00 78 1022.8
20260904085017 71 0.0 0.0 0.00 0.00 0.00 77 1022.9
20260904084017 70 0.0 0.0 0.00 0.00 0.00 74 1022.8
20260904083016 69 0.0 0.0 0.00 0.00 0.00 73 1022.7
20260904082036 69 0.0 0.0 0.00 0.00 0.00 71 1022.8
20260904081017 68 0.0 0.0 0.00 0.00 0.00 70 1022.8
20260904080037 68 0.0 0.0 0.00 0.00 0.00 69 1022.6
20260904075016 67 0.0 1.0 0.00 0.00 0.00 66 1022.4
20260904074036 67 0.0 0.0 0.00 0.00 0.00 65 1022.5
20260904073539 0 0.0 0.0 0.00 0.00 0.00
20260904073016 0 0.0 0.0 0.00 0.00 0.00
20260904072016 0 0.0 0.0 0.00 0.00 0.00
20260904071522 0 0.0 0.0 0.00 0.00 0.00
20260904071059 0 0.0 0.0 0.00 0.00 0.00
20260904070537 0 0.0 0.0 0.00 0.00 0.00
20260904065516 0 0.0 0.0 0.00 0.00 0.00
20260904065022 0 0.0 0.0 0.00 0.00 0.00
20260904064539 0 0.0 0.0 0.00 0.00 0.00
20260904064017 0 0.0 0.0 0.00 0.00 0.00
20260904063017 0 0.0 0.0 0.00 0.00 0.00
20260904062522 0 0.0 0.0 0.00 0.00 0.00
20260904062040 0 0.0 0.0 0.00 0.00 0.00
20260904061516 0 0.0 0.0 0.00 0.00 0.00
20260904060517 0 0.0 0.0 0.00 0.00 0.00
20260904060023 0 0.0 0.0 0.00 0.00 0.00
20260904055539 0 0.0 0.0 0.00 0.00 0.00
20260904055016 0 0.0 0.0 0.00 0.00 0.00
20260904054017 0 0.0 0.0 0.00 0.00 0.00
20260904053543 0 0.0 0.0 0.00 0.00 0.00
20260904053059 0 0.0 0.0 0.00 0.00 0.00
20260904052517 0 0.0 0.0 0.00 0.00 0.00
20260904051516 0 0.0 0.0 0.00 0.00 0.00
20260904051023 0 0.0 0.0 0.00 0.00 0.00
20260904050539 0 0.0 0.0 0.00 0.00 0.00
20260904050016 0 0.0 0.0 0.00 0.00 0.00
20260904045016 0 0.0 0.0 0.00 0.00 0.00
20260904044523 0 0.0 0.0 0.00 0.00 0.00
20260904044039 0 0.0 0.0 0.00 0.00 0.00
20260904043558 0 0.0 0.0 0.00 0.00 0.00